Showing default

OUTPOST MISSION 1, 56226

Orbit data source: Space-Track

OUTPOST MISSION 1, 56226 is a payload satellite owned by Outpost Tech (US) in SSO that was launched on Mon, 12 Jun 2023 UTC via an FALCON 9 launch vehicle from the Air Force Western Test Range (AFWTR). Payload-class satellites include a variety of spacecraft equipped with specific instruments for various scientific and technological missions. These include communications satellites like Starlink; space stations such as the ISS; scientific satellites like the Hubble; Earth observation satellites from companies like Planet Labs, Umbra, and HawkEye 360; GPS; miniature CubeSats for education and research; and military/defense satellites.

Loading next visibility...
Identifier
56226, 2023-084BK
Orbit
SSO
Country
Flag of USUS
Related business
Manufacturer
Outpost Tech
Mission
Operational Commercial Technology
Bus & Motor
CUBESAT 3U, Unknown motor
Mass
3 kg wet, 3 kg dry
Launch date (UTC)
2023-06-12 (2 years ago)
Launch vehicle
FALCON 9
Launch site
Air Force Western Test Range (AFWTR)
Object type
Payload
Rocket body
Debris
Shape & HBR
Box, 0.1 m
Radar Cross Section
0.035 m², Small (<0.1 m²)

Expand to show TLE details & history
Last TLE update: 10 hours ago

TLE from 10 hours ago
0 OUTPOST MISSION 1
1 56226U 23084BK  25286.62940404  .00048157  00000-0  83450-3 0  9998
2 56226  97.5884  64.8323 0004784  79.1341 281.0448 15.50745867130366
Epoch: 2025-10-13T15:06Z
TLE epoch observation values (Epoch: 2025-10-13T15:06:20.509Z)
Latitude
-0.00004°
Longitude
175.81741°
Altitude
417.053 km
Speed
7.661 km/s
True Right ascension
04h 19m 19s
True Declination
0° 00' 00"
Sunlit
Object was in full shadow at epoch
Visualization orbit readout
Latitude
Unknown
Longitude
Unknown
Altitude
Unknown
Speed
Unknown
Apparent Right ascension
Unknown
Apparent Declination
Unknown
Sunlit
N/A
Visualization observer readout
Local Sidereal Time
19:15:35
Azimuth
Unknown
Elevation
Unknown
Doppler factor
Unknown
Orbital elements
Apogee altitude
414.728 km
Perigee altitude
408.232 km
Semi-major axis
6,789.617 km
Eccentricity
0.00048
Inclination
97.5884°
RAAN
64.8323°
Arg. of periapsis
79.1341°
True anomaly
280.99099°
Mean anomaly
281.0448°
Eccentric anomaly
281.01789°
Mean motion
3.8795 °/min
Orbital period
92.8 mins
BSTAR
0.0008345
Loading maneuver chart data...
Computing Atmospheric mass density...
Loading historical data...
Loading historical data...
Loading historical data...
Loading historical data...
Loading historical data...
Loading historical data...
Loading historical data...

Documentation

Showing up to 5 results
|